Tracking 17844 objects as of 25-August-2016
HD Live streaming from Space Station
objects crossing your sky now

INTELSAT 901

Track INTELSAT 901 now!
INTELSAT 901 is classified as:


NORAD ID: 26824
Int'l Code: 2001-024A
Perigee: 35,858.3 km
Apogee: 35,881.9 km
Inclination: 0.1 °
Period: 1,440.0 minutes
Semi major axis: 42241 km
RCS: 15.9919 m2 (large)
Launch date: June 9, 2001
Source: International Telecommunications Satellite Organization (ITSO)
Launch site: FRENCH GUIANA (FRGUI)

72 C-band, 22 Ku-band, broadcasting, business services, direct-to-home TV broadcasting, telecommunications, VSAT networks; Atlantic Ocean region.
Your satellite tracking list
Your tracking list is empty





NASA's NSSDC Master Catalog

Two Line Element Set (TLE):
1 26824U 01024A   16237.80720807 -.00000166  00000-0  00000+0 0  9993
2 26824   0.0604 287.4741 0002789 239.2403  79.3741  1.00271942 55665
Source of the keplerian elements: AFSPC

N2YO: 545